EW7376 Weather Reports


time (UTC)temp
C
wind
direction
speed
KPH
gust
KPH
rain 1hr
cm
rain 24hr
cm
rain mn
cm
humidity
%
barometer
mb
20260906220023 37 126 0.0 0.0 0.00 0.00 0.00 35 1009.4
20260906214524 37 86 0.0 0.0 0.00 0.00 0.00 34 1009.4
20260906213022 37 149 0.0 0.0 0.00 0.00 0.00 33 1009.6
20260906211520 37 121 0.0 0.0 0.00 0.00 0.00 35 1009.7
20260906210018 37 129 0.0 0.0 0.00 0.00 0.00 35 1009.9
20260906204522 37 124 0.0 0.0 0.00 0.00 0.00 34 1010.2
20260906203005 37 100 0.0 0.0 0.00 0.00 0.00 36 1010.4
20260906201506 37 115 0.0 0.0 0.00 0.00 0.00 38 1010.5
20260906200004 37 90 0.0 0.0 0.00 0.00 0.00 38 1010.8
20260906194504 37 112 0.0 0.0 0.00 0.00 0.00 38 1011.0
20260906193001 37 101 0.0 0.0 0.00 0.00 0.00 38 1011.2
20260906191502 37 117 0.0 0.0 0.00 0.00 0.00 38 1011.3
20260906190101 36 123 0.0 0.0 0.00 0.00 0.00 38 1011.5
20260906184600 36 120 0.0 0.0 0.00 0.00 0.00 41 1011.8
20260906183100 36 51 0.0 0.0 0.00 0.00 0.00 40 1011.9
20260906181540 36 121 0.0 0.0 0.00 0.00 0.00 38 1012.2
20260906180057 36 142 0.0 0.0 0.00 0.00 0.00 38 1012.3
20260906174529 36 93 0.0 0.0 0.00 0.00 0.00 40 1012.5
20260906173026 36 134 0.0 0.0 0.00 0.00 0.00 39 1012.7
20260906171525 36 101 0.0 0.0 0.00 0.00 0.00 40 1012.9
20260906170025 35 78 0.0 0.0 0.00 0.00 0.00 42 1013.0
20260906164523 35 128 0.0 0.0 0.00 0.00 0.00 43 1013.2
20260906163023 35 123 0.0 0.0 0.00 0.00 0.00 44 1013.2
20260906161522 35 96 0.0 0.0 0.00 0.00 0.00 47 1013.2
20260906160021 34 123 0.0 0.0 0.00 0.00 0.00 48 1013.3
20260906154515 33 201 0.0 0.0 0.00 0.00 0.00 51 1013.3
20260906153008 32 148 0.0 0.0 0.00 0.00 0.00 53 1013.2
20260906151509 32 169 0.0 0.0 0.00 0.00 0.00 55 1013.2
20260906150013 32 150 0.0 0.0 0.00 0.00 0.00 57 1013.1
20260906144511 31 190 0.0 0.0 0.00 0.00 0.00 60 1013.1
20260906143005 30 159 0.0 0.0 0.00 0.00 0.00 63 1013.3
20260906141505 30 131 0.0 0.0 0.00 0.00 0.00 67 1013.4
20260906140005 28 134 0.0 0.0 0.00 0.00 0.00 71 1013.2
20260906134545 27 138 0.0 0.0 0.00 0.00 0.00 73 1013.1
20260906133046 27 146 0.0 0.0 0.00 0.00 0.00 75 1013.0
20260906131540 26 159 0.0 0.0 0.00 0.00 0.00 77 1012.9
20260906130028 25 159 0.0 0.0 0.00 0.00 0.00 79 1012.8
20260906124525 24 159 0.0 0.0 0.00 0.00 0.00 80 1012.6
20260906123025 24 159 0.0 0.0 0.00 0.00 0.00 81 1012.6
20260906121525 24 159 0.0 0.0 0.00 0.00 0.00 81 1012.4
20260906120022 24 159 0.0 0.0 0.00 0.00 0.00 81 1012.3
20260906114522 24 159 0.0 0.0 0.00 0.00 0.00 79 1012.3
20260906113022 24 159 0.0 0.0 0.00 0.00 0.00 79 1012.2
20260906111505 24 159 0.0 0.0 0.00 0.00 0.00 78 1011.9
20260906110003 24 159 0.0 0.0 0.00 0.00 0.00 78 1011.7
20260906104503 25 159 0.0 0.0 0.00 0.00 0.00 77 1011.7
20260906103101 25 159 0.0 0.0 0.00 0.00 0.00 77 1011.8
20260906101600 25 159 0.0 0.0 0.00 0.00 0.00 77 1011.6
20260906100059 25 159 0.0 0.0 0.00 0.00 0.00 76 1011.6
20260906094559 25 159 0.0 0.0 0.00 0.00 0.00 75 1011.5
20260906093056 25 159 0.0 0.0 0.00 0.00 0.00 75 1011.4
20260906091537 25 159 0.0 0.0 0.00 0.00 0.00 74 1011.4
20260906090036 25 159 0.0 0.0 0.00 0.00 0.00 73 1011.3
20260906084538 25 159 0.0 0.0 0.00 0.00 0.00 73 1011.2
20260906083031 25 159 0.0 0.0 0.00 0.00 0.00 72 1011.1
20260906081520 25 159 0.0 0.0 0.00 0.00 0.00 71 1011.1
20260906080027 26 159 0.0 0.0 0.00 0.00 0.00 70 1011.1
20260906074516 26 159 0.0 0.0 0.00 0.00 0.00 69 1011.0
20260906073014 26 159 0.0 0.0 0.00 0.00 0.00 67 1011.0
20260906071511 27 159 0.0 0.0 0.00 0.00 0.00 66 1011.1
20260906070008 27 159 0.0 0.0 0.00 0.00 0.00 64 1011.0
20260906064554 27 159 0.0 0.0 0.00 0.00 0.00 63 1011.1
20260906063057 28 162 0.0 0.0 0.00 0.00 0.00 62 1011.0
20260906061556 28 161 0.0 0.0 0.00 0.00 0.00 61 1011.0
20260906060052 28 156 0.0 0.0 0.00 0.00 0.00 60 1011.2
20260906054551 28 154 0.0 0.0 0.00 0.00 0.00 59 1011.3
20260906053053 28 140 0.0 0.0 0.00 0.00 0.00 60 1011.2
20260906051553 28 95 0.0 0.0 0.00 0.00 0.00 60 1011.3
20260906050044 29 150 0.0 0.0 0.00 0.00 0.00 56 1011.1
20260906044530 29 150 0.0 0.0 0.00 0.00 0.00 56 1010.9
20260906043032 29 144 0.0 0.0 0.00 0.00 0.00 55 1010.8
20260906041628 30 135 0.0 0.0 0.00 0.00 0.00 54 1010.9
20260906040030 30 129 0.0 0.0 0.00 0.00 0.00 54 1011.0
20260906034534 30 128 0.0 0.0 0.00 0.00 0.00 53 1011.4
20260906033027 30 126 0.0 0.0 0.00 0.00 0.00 52 1011.2
20260906031520 31 126 0.0 0.0 0.00 0.00 0.00 51 1011.1
20260906030017 31 116 0.0 0.0 0.00 0.00 0.00 51 1010.9
20260906024619 31 116 0.0 0.0 0.00 0.00 0.00 50 1010.7
20260906023054 31 116 0.0 0.0 0.00 0.00 0.00 49 1010.6
20260906021536 31 116 0.0 0.0 0.00 0.00 0.00 48 1010.4
20260906020039 31 115 0.0 0.0 0.00 0.00 0.00 47 1010.1
20260906014527 32 115 0.0 0.0 0.00 0.00 0.00 46 1010.0
20260906013016 32 113 0.0 0.0 0.00 0.00 0.00 44 1009.8
20260906011512 33 113 0.0 0.0 0.00 0.00 0.00 43 1009.5
20260906010006 33 109 0.0 0.0 0.00 0.00 0.00 42 1009.4
20260906004502 34 112 0.0 0.0 0.00 0.00 0.00 40 1009.4
20260906003112 35 119 0.0 0.0 0.00 0.00 0.00 39 1009.4
20260906001556 35 117 0.0 0.0 0.00 0.00 0.00 38 1009.3
20260905234538 36 117 0.0 0.0 0.00 0.00 0.00 36 1009.1
20260905233038 36 120 0.0 0.0 0.00 0.00 0.00 36 1009.1
20260905231539 36 72 0.0 0.0 0.00 0.00 0.00 36 1009.1
20260905230035 36 105 0.0 0.0 0.00 0.00 0.00 36 1009.0
20260905224535 36 117 0.0 0.0 0.00 0.00 0.00 36 1009.0
20260905223030 36 136 0.0 0.0 0.00 0.00 0.00 35 1009.0
20260905221527 36 183 0.0 0.0 0.00 0.00 0.00 38 1009.1